Location: Ostrava
(49.8330°N, 18.2830°E)
Time: 02:09:49
(UTC+02:00)

Lacrosse 5 - Visible Passes

Search period start: 30 August 2014 00:00
Search period end: 09 September 2014 00:00
Orbit: 710 x 718 km, 57.0° (Epoch: 27 July)

Date Brightness Start Highest point End Pass type
(mag) Time Alt. Az. Time Alt. Az. Time Alt. Az.
30 Aug 3.9 02:22:43 17° ESE 02:22:43 17° ESE 02:25:15 10° E visible
30 Aug 1.9 04:01:48 32° SW 04:04:07 75° SE 04:09:09 10° ENE visible
31 Aug 2.3 03:09:04 46° SSE 03:09:27 47° SE 03:14:16 10° ENE visible
31 Aug 2.3 04:48:10 15° W 04:52:18 56° NNW 04:57:16 10° NE visible
01 Sep 3.5 02:16:19 24° ESE 02:16:19 24° ESE 02:19:11 10° ENE visible
01 Sep 1.8 03:55:24 37° WSW 03:57:25 78° NNW 04:02:28 10° NE visible
02 Sep 4.5 01:23:31 10° E 01:23:31 10° E 01:23:35 10° E visible
02 Sep 1.8 03:02:36 70° SE 03:02:39 70° SE 03:07:39 10° ENE visible
02 Sep 2.6 04:41:42 14° W 04:45:46 45° NNW 04:50:37 10° ENE visible
03 Sep 3.2 02:09:48 31° E 02:09:48 31° E 02:12:45 10° ENE visible
03 Sep 2.2 03:48:53 35° W 03:50:48 59° NNW 03:55:47 10° NE visible
03 Sep 3.1 05:29:44 10° WNW 05:34:23 36° N 05:39:03 10° ENE visible
04 Sep 4.3 01:16:58 13° ENE 01:16:58 13° ENE 01:17:37 10° ENE visible
04 Sep 1.8 02:56:03 82° N 02:56:03 82° N 03:00:59 10° ENE visible
04 Sep 2.9 04:35:08 13° WNW 04:39:18 39° N 04:44:02 10° ENE visible
05 Sep 3.1 02:03:12 35° ENE 02:03:12 35° ENE 02:06:10 10° ENE visible
05 Sep 2.6 03:42:17 31° WNW 03:44:15 47° NNW 03:49:07 10° NE visible
05 Sep 3.1 05:23:18 10° WNW 05:27:58 37° N 05:32:38 10° ENE visible
06 Sep 4.2 01:10:21 15° ENE 01:10:21 15° ENE 01:11:14 10° ENE visible
06 Sep 2.1 02:49:25 61° NNW 02:49:25 61° NNW 02:54:18 10° NE visible
06 Sep 3.1 04:28:30 12° WNW 04:32:52 36° N 04:37:31 10° ENE visible
07 Sep 3.2 01:56:34 36° NE 01:56:34 36° NE 01:59:30 10° ENE visible
07 Sep 2.9 03:35:39 27° WNW 03:37:46 40° NNW 03:42:31 10° ENE visible
07 Sep 3.0 05:16:46 10° WNW 05:21:31 40° NNE 05:26:15 10° E visible
08 Sep 4.2 01:03:42 16° ENE 01:03:42 16° ENE 01:04:40 10° ENE visible
08 Sep 2.5 02:42:47 48° NNW 02:42:47 48° NNW 02:47:38 10° NE visible
08 Sep 3.1 04:21:52 11° WNW 04:26:26 36° N 04:31:06 10° ENE visible
